PAKSAT-1R

Last updated on Sun Jun 21 2026 00:03:05 GMT+0000 (Coordinated Universal Time)

1 37779U 11042A 26171.25691020 .00000149 00000+0 00000+0 0 9995 2 37779 0.6981 84.5700 0003342 340.1409 334.2238 1.00268046 54502
UTC large
Height (km)
Speed (km/s)
/
Latitude / Longitude
Inclination (degrees)
Orbital Period (minutes)
Azimuth
Elevation
Range (km)
Doppler Factor

Next 0 passes for location: London (51.5072 / 0.1276)

No passes found over London.
PAKSAT-1R